| time (UTC) | temp F | wind direction | speed MPH | gust MPH | rain 1hr in | rain 24hr in | rain mn in | humidity % | barometer mb |
| 20260902112307 | 73 | 69 | 6.0 | 12.0 | 0.00 | 1.74 | 0.00 | 91 | 1017.8 |
| 20260902110807 | 73 | 93 | 5.0 | 12.0 | 0.00 | 1.74 | 0.00 | 90 | 1017.7 |
| 20260902110307 | 73 | 82 | 6.0 | 12.0 | 0.00 | 1.74 | 0.00 | 90 | 1017.6 |
| 20260902103807 | 74 | 71 | 7.0 | 13.0 | 0.00 | 1.74 | 0.00 | 89 | 1017.5 |
| 20260902103307 | 74 | 83 | 8.0 | 14.0 | 0.00 | 1.74 | 0.00 | 89 | 1017.5 |
| 20260902102807 | 74 | 96 | 7.0 | 14.0 | 0.00 | 1.74 | 0.00 | 89 | 1017.5 |
| 20260902102308 | 74 | 86 | 6.0 | 15.0 | 0.00 | 1.74 | 0.00 | 89 | 1017.4 |
| 20260902101807 | 74 | 75 | 6.0 | 13.0 | 0.00 | 1.74 | 0.00 | 89 | 1017.4 |
| 20260902101307 | 74 | 70 | 7.0 | 14.0 | 0.00 | 1.74 | 0.00 | 89 | 1017.4 |
| 20260902100807 | 74 | 70 | 7.0 | 13.0 | 0.00 | 1.74 | 0.00 | 89 | 1017.3 |
| 20260902094807 | 74 | 73 | 6.0 | 10.0 | 0.00 | 1.74 | 0.00 | 89 | 1017.0 |
| 20260902094307 | 74 | 62 | 7.0 | 14.0 | 0.00 | 1.74 | 0.00 | 89 | 1016.9 |
| 20260902093807 | 74 | 72 | 7.0 | 13.0 | 0.00 | 1.74 | 0.00 | 89 | 1016.8 |
| 20260902092808 | 74 | 87 | 8.0 | 12.0 | 0.00 | 1.74 | 0.00 | 90 | 1016.7 |
| 20260902091308 | 74 | 73 | 7.0 | 12.0 | 0.00 | 1.74 | 0.00 | 90 | 1016.6 |
| 20260902085807 | 74 | 56 | 7.0 | 12.0 | 0.00 | 1.74 | 0.00 | 90 | 1016.5 |
| 20260902085306 | 74 | 88 | 6.0 | 12.0 | 0.00 | 1.74 | 0.00 | 90 | 1016.5 |
| 20260902082808 | 74 | 88 | 7.0 | 12.0 | 0.00 | 1.74 | 0.00 | 91 | 1016.4 |
| 20260902080307 | 74 | 65 | 7.0 | 13.0 | 0.00 | 1.74 | 0.00 | 91 | 1016.0 |
| 20260902075807 | 74 | 76 | 8.0 | 14.0 | 0.00 | 1.74 | 0.00 | 91 | 1016.1 |
| 20260902074806 | 74 | 69 | 8.0 | 13.0 | 0.00 | 1.74 | 0.00 | 91 | 1016.2 |
| 20260902074307 | 74 | 69 | 7.0 | 13.0 | 0.00 | 1.74 | 0.00 | 91 | 1016.2 |
| 20260902073307 | 74 | 79 | 6.0 | 13.0 | 0.00 | 1.74 | 0.00 | 92 | 1016.1 |
| 20260902072807 | 74 | 53 | 6.0 | 13.0 | 0.00 | 1.74 | 0.00 | 92 | 1016.0 |
| 20260902072309 | 74 | 65 | 6.0 | 12.0 | 0.00 | 1.74 | 0.00 | 92 | 1016.0 |
| 20260902071307 | 74 | 58 | 8.0 | 12.0 | 0.00 | 1.74 | 0.00 | 92 | 1015.9 |
| 20260902070807 | 74 | 65 | 8.0 | 12.0 | 0.00 | 1.74 | 0.00 | 92 | 1015.9 |
| 20260902070307 | 74 | 58 | 6.0 | 12.0 | 0.00 | 1.74 | 0.00 | 92 | 1015.9 |
| 20260902065807 | 74 | 54 | 9.0 | 16.0 | 0.00 | 1.74 | 0.00 | 92 | 1015.8 |
| 20260902063807 | 74 | 60 | 6.0 | 12.0 | 0.00 | 1.74 | 0.00 | 92 | 1015.9 |
| 20260902062807 | 74 | 70 | 7.0 | 14.0 | 0.00 | 1.74 | 0.00 | 93 | 1015.7 |
| 20260902061807 | 74 | 59 | 9.0 | 14.0 | 0.00 | 1.74 | 0.00 | 93 | 1015.6 |
| 20260902061307 | 74 | 54 | 6.0 | 13.0 | 0.00 | 1.74 | 0.00 | 93 | 1015.6 |
| 20260902060807 | 74 | 54 | 6.0 | 12.0 | 0.00 | 1.74 | 0.00 | 93 | 1015.7 |
| 20260902055807 | 74 | 37 | 6.0 | 14.0 | 0.00 | 1.74 | 0.00 | 93 | 1015.6 |
| 20260902053807 | 74 | 64 | 6.0 | 15.0 | 0.00 | 1.74 | 0.00 | 93 | 1015.7 |
| 20260902053307 | 74 | 70 | 8.0 | 15.0 | 0.00 | 1.74 | 0.00 | 93 | 1015.6 |
| 20260902051807 | 74 | 41 | 7.0 | 15.0 | 0.00 | 1.74 | 0.00 | 93 | 1015.7 |
| 20260902045807 | 74 | 50 | 6.0 | 12.0 | 0.00 | 1.74 | 0.00 | 93 | 1015.6 |
| 20260902045307 | 74 | 49 | 6.0 | 13.0 | 0.00 | 1.74 | 0.00 | 92 | 1015.6 |
| 20260902043807 | 74 | 34 | 7.0 | 13.0 | 0.00 | 1.74 | 0.00 | 92 | 1015.6 |
| 20260902043307 | 74 | 30 | 7.0 | 13.0 | 0.00 | 1.74 | 0.00 | 92 | 1015.6 |
| 20260902042807 | 74 | 24 | 8.0 | 16.0 | 0.00 | 1.74 | 0.00 | 92 | 1015.5 |
| 20260902042309 | 74 | 36 | 9.0 | 15.0 | 0.00 | 1.74 | 0.00 | 92 | 1015.5 |
| 20260902041807 | 74 | 26 | 9.0 | 15.0 | 0.00 | 1.74 | 0.00 | 92 | 1015.4 |
| 20260902040838 | 74 | 25 | 12.0 | 16.0 | 0.00 | 1.74 | 0.00 | 92 | 1015.3 |
| 20260902040308 | 74 | 25 | 10.0 | 15.0 | 0.00 | 1.74 | 0.00 | 92 | 1015.3 |
| 20260902035807 | 74 | 33 | 9.0 | 15.0 | 0.00 | 1.74 | 1.74 | 92 | 1015.1 |
| 20260902035307 | 74 | 29 | 7.0 | 12.0 | 0.00 | 1.74 | 1.74 | 92 | 1015.0 |
| 20260902034807 | 73 | 30 | 7.0 | 12.0 | 0.00 | 1.74 | 1.74 | 92 | 1015.0 |
| 20260902033807 | 73 | 353 | 9.0 | 13.0 | 0.00 | 1.74 | 1.74 | 92 | 1015.0 |
| 20260902033307 | 73 | 349 | 11.0 | 14.0 | 0.01 | 1.74 | 1.74 | 92 | 1015.0 |
| 20260902032807 | 72 | 350 | 10.0 | 12.0 | 0.01 | 1.74 | 1.74 | 92 | 1014.9 |
| 20260902032307 | 72 | 346 | 9.0 | 13.0 | 0.01 | 1.74 | 1.74 | 92 | 1014.7 |
| 20260902030807 | 72 | 324 | 2.0 | 6.0 | 0.01 | 1.74 | 1.74 | 92 | 1014.8 |
| 20260902024807 | 72 | 253 | 4.0 | 12.0 | 0.02 | 1.74 | 1.74 | 91 | 1014.8 |
| 20260902024307 | 72 | 250 | 6.0 | 15.0 | 0.03 | 1.74 | 1.74 | 91 | 1015.0 |
| 20260902023307 | 73 | 241 | 7.0 | 12.0 | 0.05 | 1.73 | 1.73 | 92 | 1015.2 |
| 20260902021806 | 72 | 255 | 2.0 | 3.0 | 0.46 | 1.73 | 1.73 | 91 | 1015.4 |
| 20260902020307 | 73 | 311 | 6.0 | 14.0 | 1.26 | 1.73 | 1.73 | 91 | 1014.8 |
| 20260902015806 | 73 | 345 | 9.0 | 14.0 | 1.41 | 1.73 | 1.73 | 92 | 1014.3 |
| 20260902015307 | 73 | 19 | 4.0 | 10.0 | 1.55 | 1.73 | 1.73 | 91 | 1013.7 |
| 20260902014807 | 73 | 4 | 3.0 | 10.0 | 1.59 | 1.72 | 1.72 | 92 | 1013.5 |
| 20260902014307 | 73 | 321 | 4.0 | 10.0 | 1.64 | 1.71 | 1.71 | 92 | 1014.0 |
| 20260902012807 | 72 | 115 | 7.0 | 20.0 | 1.63 | 1.66 | 1.66 | 91 | 1013.3 |
| 20260902012309 | 73 | 90 | 13.0 | 23.0 | 1.56 | 1.58 | 1.58 | 91 | 1013.8 |
| 20260902011806 | 73 | 77 | 14.0 | 26.0 | 1.27 | 1.27 | 1.27 | 90 | 1014.7 |
| 20260902011306 | 74 | 48 | 21.0 | 28.0 | 0.89 | 0.89 | 0.89 | 88 | 1014.3 |
| 20260902010306 | 78 | 348 | 9.0 | 20.0 | 0.47 | 0.47 | 0.47 | 89 | 1013.0 |
| 20260902004807 | 80 | 248 | 2.0 | 5.0 | 0.13 | 0.13 | 0.13 | 89 | 1012.4 |
| 20260902003307 | 80 | 233 | 3.0 | 5.0 | 0.03 | 0.03 | 0.03 | 89 | 1012.1 |
| 20260902002807 | 80 | 212 | 2.0 | 6.0 | 0.03 | 0.03 | 0.03 | 89 | 1011.8 |
| 20260902002307 | 79 | 205 | 2.0 | 3.0 | 0.02 | 0.02 | 0.02 | 88 | 1012.1 |
| 20260902000307 | 80 | 196 | 5.0 | 7.0 | 0.00 | 0.00 | 0.00 | 87 | 1012.5 |
| 20260901234307 | 81 | 224 | 4.0 | 12.0 | 0.00 | 0.00 | 0.00 | 86 | 1012.3 |
| 20260901233306 | 81 | 243 | 6.0 | 13.0 | 0.00 | 0.00 | 0.00 | 85 | 1012.5 |
| 20260901231807 | 82 | 233 | 3.0 | 8.0 | 0.00 | 0.00 | 0.00 | 84 | 1012.5 |
| 20260901231307 | 82 | 233 | 4.0 | 9.0 | 0.00 | 0.00 | 0.00 | 84 | 1012.5 |
| 20260901230807 | 82 | 220 | 4.0 | 7.0 | 0.00 | 0.00 | 0.00 | 83 | 1012.3 |
| 20260901225806 | 82 | 223 | 5.0 | 12.0 | 0.00 | 0.00 | 0.00 | 83 | 1012.5 |
| 20260901225306 | 82 | 220 | 6.0 | 10.0 | 0.00 | 0.00 | 0.00 | 82 | 1012.3 |
| 20260901224306 | 82 | 226 | 3.0 | 9.0 | 0.00 | 0.00 | 0.00 | 83 | 1012.0 |
| 20260901223806 | 82 | 215 | 3.0 | 7.0 | 0.00 | 0.00 | 0.00 | 83 | 1012.0 |
| 20260901221807 | 82 | 212 | 6.0 | 12.0 | 0.00 | 0.00 | 0.00 | 82 | 1012.1 |
| 20260901214806 | 85 | 222 | 4.0 | 12.0 | 0.00 | 0.00 | 0.00 | 78 | 1012.3 |
| 20260901213806 | 85 | 197 | 5.0 | 12.0 | 0.00 | 0.00 | 0.00 | 77 | 1012.3 |
| 20260901211807 | 87 | 205 | 5.0 | 13.0 | 0.00 | 0.00 | 0.00 | 75 | 1012.3 |
| 20260901211307 | 87 | 206 | 4.0 | 12.0 | 0.00 | 0.00 | 0.00 | 76 | 1012.3 |
| 20260901210806 | 87 | 225 | 8.0 | 14.0 | 0.00 | 0.00 | 0.00 | 74 | 1012.4 |
| 20260901210307 | 88 | 209 | 4.0 | 9.0 | 0.00 | 0.00 | 0.00 | 74 | 1012.4 |
| 20260901205307 | 88 | 227 | 5.0 | 12.0 | 0.00 | 0.00 | 0.00 | 74 | 1012.4 |
| 20260901204807 | 88 | 230 | 3.0 | 10.0 | 0.00 | 0.00 | 0.00 | 75 | 1012.5 |
| 20260901203307 | 86 | 213 | 6.0 | 12.0 | 0.00 | 0.00 | 0.00 | 77 | 1012.4 |
| 20260901202806 | 86 | 208 | 6.0 | 13.0 | 0.00 | 0.00 | 0.00 | 76 | 1012.4 |
| 20260901202306 | 87 | 206 | 7.0 | 14.0 | 0.00 | 0.00 | 0.00 | 74 | 1012.4 |
| 20260901200806 | 89 | 219 | 6.0 | 12.0 | 0.00 | 0.00 | 0.00 | 72 | 1012.6 |
| 20260901200306 | 89 | 184 | 5.0 | 9.0 | 0.00 | 0.00 | 0.00 | 73 | 1012.7 |
| 20260901195807 | 88 | 221 | 5.0 | 12.0 | 0.00 | 0.00 | 0.00 | 73 | 1012.7 |
| 20260901195306 | 90 | 199 | 5.0 | 13.0 | 0.00 | 0.00 | 0.00 | 71 | 1012.6 |
| 20260901194807 | 90 | 251 | 3.0 | 7.0 | 0.00 | 0.00 | 0.00 | 72 | 1012.6 |
| 20260901192806 | 89 | 226 | 3.0 | 9.0 | 0.00 | 0.00 | 0.00 | 72 | 1012.6 |
| 20260901192306 | 89 | 238 | 6.0 | 10.0 | 0.00 | 0.00 | 0.00 | 72 | 1012.5 |
| 20260901191807 | 89 | 238 | 7.0 | 14.0 | 0.00 | 0.00 | 0.00 | 72 | 1012.5 |
| 20260901191306 | 89 | 230 | 6.0 | 12.0 | 0.00 | 0.00 | 0.00 | 72 | 1012.6 |
| 20260901190307 | 88 | 238 | 5.0 | 12.0 | 0.00 | 0.00 | 0.00 | 73 | 1012.8 |
| 20260901184806 | 90 | 236 | 4.0 | 9.0 | 0.00 | 0.00 | 0.00 | 70 | 1013.1 |
| 20260901184306 | 90 | 233 | 3.0 | 6.0 | 0.00 | 0.00 | 0.00 | 70 | 1013.2 |
| 20260901183806 | 89 | 233 | 3.0 | 5.0 | 0.00 | 0.00 | 0.00 | 72 | 1013.2 |
| 20260901182306 | 88 | 215 | 2.0 | 6.0 | 0.00 | 0.00 | 0.00 | 74 | 1013.3 |
| 20260901181806 | 88 | 247 | 2.0 | 3.0 | 0.00 | 0.00 | 0.00 | 75 | 1013.4 |
| 20260901180306 | 86 | 197 | 3.0 | 5.0 | 0.00 | 0.00 | 0.00 | 77 | 1013.4 |
| 20260901175806 | 86 | 199 | 2.0 | 5.0 | 0.00 | 0.00 | 0.00 | 77 | 1013.5 |
| 20260901174806 | 87 | 234 | 1.0 | 3.0 | 0.00 | 0.00 | 0.00 | 74 | 1013.6 |
| 20260901174306 | 87 | 261 | 0.0 | 2.0 | 0.00 | 0.00 | 0.00 | 74 | 1013.6 |
| 20260901173806 | 87 | 262 | 1.0 | 3.0 | 0.00 | 0.00 | 0.00 | 74 | 1013.6 |
| 20260901173307 | 87 | 250 | 1.0 | 3.0 | 0.00 | 0.00 | 0.00 | 74 | 1013.6 |
| 20260901171806 | 86 | 280 | 1.0 | 3.0 | 0.00 | 0.00 | 0.00 | 76 | 1013.8 |
| 20260901170806 | 86 | 288 | 0.0 | 0.0 | 0.00 | 0.00 | 0.00 | 76 | 1013.9 |
| 20260901170306 | 86 | 288 | 0.0 | 0.0 | 0.00 | 0.00 | 0.00 | 76 | 1014.1 |
| 20260901165806 | 87 | 231 | 0.0 | 0.0 | 0.00 | 0.00 | 0.00 | 75 | 1014.2 |
| 20260901164807 | 87 | 215 | 1.0 | 3.0 | 0.00 | 0.00 | 0.00 | 76 | 1014.1 |
| 20260901163806 | 89 | 252 | 0.0 | 3.0 | 0.00 | 0.00 | 0.00 | 72 | 1014.3 |
| 20260901162806 | 88 | 246 | 2.0 | 6.0 | 0.00 | 0.00 | 0.00 | 73 | 1014.4 |
| 20260901162306 | 87 | 255 | 2.0 | 5.0 | 0.00 | 0.00 | 0.00 | 73 | 1014.5 |
| 20260901161807 | 87 | 240 | 3.0 | 7.0 | 0.00 | 0.00 | 0.00 | 73 | 1014.6 |
| 20260901161306 | 88 | 221 | 3.0 | 7.0 | 0.00 | 0.00 | 0.00 | 72 | 1014.7 |
| 20260901160806 | 88 | 239 | 3.0 | 10.0 | 0.00 | 0.00 | 0.00 | 74 | 1014.6 |
| 20260901155806 | 86 | 187 | 5.0 | 10.0 | 0.00 | 0.00 | 0.00 | 76 | 1014.6 |
| 20260901155307 | 87 | 210 | 4.0 | 7.0 | 0.00 | 0.00 | 0.00 | 76 | 1014.6 |
| 20260901153806 | 84 | 214 | 3.0 | 7.0 | 0.00 | 0.00 | 0.00 | 79 | 1014.8 |
| 20260901152306 | 84 | 205 | 6.0 | 10.0 | 0.00 | 0.00 | 0.00 | 79 | 1014.7 |
| 20260901151306 | 86 | 202 | 4.0 | 9.0 | 0.00 | 0.00 | 0.00 | 77 | 1014.7 |
| 20260901145806 | 85 | 221 | 4.0 | 8.0 | 0.00 | 0.00 | 0.00 | 78 | 1014.7 |
| 20260901144806 | 84 | 234 | 5.0 | 7.0 | 0.00 | 0.00 | 0.00 | 80 | 1014.6 |
| 20260901141806 | 83 | 234 | 5.0 | 7.0 | 0.00 | 0.00 | 0.00 | 83 | 1014.7 |
| 20260901141307 | 82 | 252 | 3.0 | 6.0 | 0.00 | 0.00 | 0.00 | 84 | 1014.7 |
| 20260901140306 | 81 | 230 | 3.0 | 5.0 | 0.00 | 0.00 | 0.00 | 85 | 1014.7 |
| 20260901133806 | 80 | 236 | 3.0 | 5.0 | 0.00 | 0.00 | 0.00 | 86 | 1014.9 |
| 20260901132807 | 80 | 255 | 3.0 | 6.0 | 0.00 | 0.00 | 0.00 | 87 | 1014.9 |
| 20260901131806 | 79 | 229 | 3.0 | 8.0 | 0.00 | 0.00 | 0.00 | 87 | 1014.9 |
| 20260901130306 | 79 | 227 | 3.0 | 8.0 | 0.00 | 0.00 | 0.00 | 88 | 1015.0 |
| 20260901125309 | 78 | 245 | 3.0 | 5.0 | 0.00 | 0.00 | 0.00 | 89 | 1015.3 |
| 20260901124306 | 78 | 249 | 3.0 | 6.0 | 0.00 | 0.00 | 0.00 | 89 | 1015.3 |
| 20260901123806 | 78 | 242 | 3.0 | 7.0 | 0.00 | 0.00 | 0.00 | 89 | 1015.4 |
| 20260901122306 | 77 | 256 | 3.0 | 6.0 | 0.00 | 0.00 | 0.00 | 89 | 1015.4 |
| 20260901121806 | 77 | 245 | 3.0 | 9.0 | 0.00 | 0.00 | 0.00 | 89 | 1015.4 |
| 20260901121306 | 77 | 244 | 3.0 | 6.0 | 0.00 | 0.00 | 0.00 | 89 | 1015.4 |
| 20260901120806 | 77 | 241 | 3.0 | 7.0 | 0.00 | 0.00 | 0.00 | 89 | 1015.4 |
| 20260901120307 | 77 | 246 | 3.0 | 9.0 | 0.00 | 0.00 | 0.00 | 89 | 1015.4 |
| 20260901114806 | 77 | 247 | 4.0 | 8.0 | 0.00 | 0.00 | 0.00 | 89 | 1015.5 |
| 20260901114306 | 77 | 247 | 3.0 | 6.0 | 0.00 | 0.00 | 0.00 | 90 | 1015.5 |